Back to catalog

STARLINK-31663

AliveCommunicationsVLEO
NORAD 59576·PAYLOAD·🇺🇸 United States

Launched Apr 23, 2024 from Cape Canaveral Space Force Station

Loading…

Next Passes (next 24 hours)

TLE

FreshSource: CelesTrak SupGP

Epoch: Sep 14, 2026, 20:43 UTC

1 59576C 24076N   26257.86368056  .00046366  00000+0  16793-2 0  2574
2 59576  43.0042  20.9098 0001767 273.8066   0.7424 15.27556278    14

Track STARLINK-31663 in real time with AllMySat

Download on the App Store